SCP
1 1 1 1 1 1 1 1 1 1 1 1 1 2 2 3 3 2 2 2 2 1 2 2 2 2 1 1 1 2 2 2 2 1 1 1 1 1 1 1 1 1 1
1 1 1 1 1 1 1 1 1 1 1 1 2 2 3 3 3 2 2 2 2 2 2 2 2 2 1 1 1 2 2 2 2 1 1 1 1 1 2 1 1 1 1
1 1 1 1 1 1 1 1 1 1 1 1 2 2 3 3 3 3 2 2 2 2 2 2 2 2 1 2 2 2 2 2 2 2 1 1 1 1 1 1 1 2 2
1 1 1 1 1 1 1 1 1 1 1 1 1 2 2 2 3 3 2 2 2 2 2 1 1 1 1 2 2 2 2 2 2 2 1 1 1 1 1 2 2 2 2
1 1 1 1 1 1 1 1 1 1 1 1 1 1 1 2 2 2 2 2 2 1 1 1 1 1 1 2 2 2 2 2 2 2 1 1 1 1 1 2 2 2 2
1 0 1 1 1 1 1 1 1 2 1 1 1 1 1 1 1 1 2 2 1 1 1 1 1 1 1 1 1 2 2 2 2 1 1 1 1 1 1 2 2 2 2
0 1 1 1 1 1 1 1 2 2 2 1 1 1 1 1 1 1 1 1 1 1 1 1 1 1 1 1 1 1 2 2 1 1 1 1 1 1 1 2 2 2 3
0 1 1 1 1 1 1 1 2 2 2 1 1 1 1 1 1 1 1 1 1 1 1 1 1 1 1 1 1 1 1 1 1 1 1 1 1 1 1 1 2 2 3
0 1 1 1 1 1 1 2 2 2 2 1 1 1 1 1 1 1 1 1 1 1 1 1 1 1 1 1 1 1 1 1 1 0 0 1 1 1 1 1 1 2 2
0 0 1 1 1 1 1 2 2 2 1 1 1 2 2 2 1 1 1 1 1 1 1 1 1 1 1 1 1 1 1 1 1 0 0 1 1 1 1 1 1 1 2
1 1 1 1 1 1 1 1 1 1 1 1 1 1 1 1 1 1 1 1 1 1 1 1 1 1 1 1 1 1 1 1 0 0 1 1 1 1 2 1 1 1 2
1 1 1 1 1 1 1 1 1 1 1 1 1 1 1 1 1 1 1 1 1 1 1 1 1 1 1 1 1 1 0 0 0 0 1 1 1 2 2 2 1 1 2
1 1 1 1 1 1 1 1 1 1 1 1 1 1 1 1 0 0 1 1 1 1 1 1 1 1 1 1 1 0 0 0 0 0 1 1 1 2 2 2 2 2 2
1 1 1 1 1 1 1 1 1 1 1 1 1 1 1 1 0 0 0 0 0 0 0 0 0 0 0 0 0 0 0 0 0 1 1 1 1 2 2 2 2 2 2
1 1 1 1 1 1 1 1 1 1 1 1 1 1 1 0 0 0 0 0 0 0 0 0 0 0 0 0 0 0 0 0 0 1 1 1 2 2 2 2 2 2 2
1 1 1 1 1 1 1 1 1 1 1 0 0 0 1 0 0 0 0 0 0 0 0 0 0 0 0 0 0 0 0 0 1 1 1 1 2 2 2 2 3 3 3
1 1 1 1 1 1 1 1 1 1 1 0 0 0 1 1 1 1 0 0 0 1 1 0 0 1 1 1 1 1 1 1 1 1 1 1 1 1 2 2 4 4 4
2 2 2 1 1 1 1 1 1 1 1 1 1 1 1 1 1 1 0 0 0 1 1 1 1 1 1 1 1 1 1 1 1 1 1 1 1 1 1 2 3 4 4
3 2 2 1 1 1 1 1 1 1 1 1 1 1 1 1 1 1 0 0 0 0 1 1 1 1 1 1 1 1 0 1 1 1 1 1 1 1 1 1 2 2 2
2 2 1 1 1 1 1 1 1 1 1 1 1 2 2 2 2 1 0 0 0 0 0 0 0 0 0 0 0 0 0 0 0 0 0 0 1 1 1 1 1 1 1
1 1 1 1 1 1 1 1 1 1 1 1 1 2 2 2 2 1 1 0 0 0 0 0 0 0 0 0 0 0 0 0 0 0 0 0 0 0 0 0 1 1 1
1 1 1 1 1 2 2 2 1 1 1 1 2 2 2 2 2 2 1 1 0 0 1 1 1 0 0 0 0 0 0 0 0 0 0 0 0 0 0 0 1 1 1
1 1 1 1 2 2 2 2 2 1 1 1 1 1 1 1 2 1 1 1 0 0 0 0 0 0 0 0 0 0 0 0 0 0 0 0 0 0 0 1 1 1 1
1 1 1 1 1 2 2 2 2 2 1 1 1 1 1 1 1 1 1 1 0 0 0 0 0 0 0 0 0 0 0 0 0 0 0 0 0 0 1 1 1 1 1
1 1 1 1 1 1 1 2 2 2 1 1 1 1 1 1 1 1 1 1 0 0 0 0 0 0 0 0 0 0 0 0 0 0 0 0 0 0 1 1 1 1 1
1 1 1 1 1 1 1 1 2 2 1 1 1 1 1 1 1 1 1 1 1 0 0 0 0 0 0 0 0 0 0 0 0 0 0 0 0 0 1 1 1 0 0
Wind_Speed
3 5 11 13 13 13 12 11 11 11 11 11 11 11 12 12 12 13 13 13 13 13 12 12 11 11 11 11 11 11 11 11 10 10 10 10 10 9 9 10 9 7 10
7 7 12 13 13 13 12 11 11 10 10 11 11 12 11 12 12 13 13 13 12 12 11 11 11 11 11 11 11 10 10 10 10 9 9 8 8 8 8 9 9 6 9
9 7 10 12 12 12 12 11 10 10 11 11 12 12 12 12 12 12 12 12 12 12 11 11 10 10 10 9 9 9 8 8 9 8 7 4 5 7 8 9 9 10 9
10 7 9 12 12 12 11 11 10 10 11 12 12 12 12 11 11 11 12 12 12 11 11 10 10 9 8 8 8 7 6 6 7 7 4 3 3 6 8 9 9 9 9
8 7 9 13 12 12 11 11 10 11 11 12 12 12 11 11 11 11 11 11 11 11 10 9 9 8 7 6 6 6 6 5 5 4 3 3 3 7 9 9 9 9 9
8 7 9 13 12 12 12 11 11 11 11 12 12 11 11 10 11 11 11 11 10 10 9 8 8 7 6 5 5 6 5 4 3 3 3 3 3 8 9 9 9 9 9
8 7 8 13 12 12 12 12 11 11 11 11 11 11 10 10 10 10 10 10 9 9 8 8 7 6 4 4 5 5 5 4 3 3 3 3 4 9 10 9 9 8 8
9 7 7 12 12 12 12 11 11 10 10 10 10 10 10 10 9 10 9 9 9 8 8 7 6 5 4 4 5 5 4 3 3 4 4 4 7 9 10 9 9 8 8
8 7 6 6 8 11 12 11 10 10 9 9 9 9 9 9 9 9 9 9 8 8 7 7 6 5 5 4 4 3 3 3 3 3 4 4 8 10 10 10 9 8 8
7 7 6 5 5 5 6 10 10 10 9 9 8 9 9 8 8 8 8 8 8 8 7 7 6 6 5 4 4 4 3 3 3 3 2 4 9 11 11 10 10 9 8
7 5 6 6 5 5 5 7 7 8 8 7 6 8 6 3 3 4 6 8 8 8 7 7 6 5 4 4 5 5 3 1 3 3 3 7 11 11 11 10 10 9 9
7 6 5 6 6 5 5 4 3 3 3 3 2 3 2 2 2 4 6 8 8 8 7 6 6 5 3 2 4 4 1 2 3 3 4 10 11 12 11 10 10 10 9
7 7 6 6 6 5 3 3 2 2 2 2 3 2 2 2 1 2 1 3 4 5 3 3 3 2 2 2 2 2 3 3 3 3 5 11 11 12 12 11 11 10 9
7 6 5 6 6 5 4 3 3 2 2 2 2 3 2 1 1 1 1 1 1 1 2 2 1 2 3 3 3 3 3 3 3 3 5 11 11 12 12 11 10 10 10
7 6 6 5 5 4 4 3 3 3 3 2 2 2 3 2 2 2 1 2 2 2 2 2 2 3 3 3 3 3 3 4 4 4 4 11 11 11 11 11 11 11 10
6 6 5 5 4 4 3 3 3 3 3 2 2 3 3 3 2 2 2 2 2 2 2 3 3 3 2 2 2 2 3 4 4 4 4 6 9 10 10 11 11 11 10
6 6 6 6 4 4 3 3 3 2 3 2 2 3 3 3 3 2 2 1 1 1 2 1 2 1 1 1 1 2 2 3 4 4 4 3 4 8 9 10 10 10 10
6 6 5 6 5 4 3 2 2 2 3 2 2 2 3 3 3 2 2 1 1 0 0 1 0 0 0 0 0 1 1 2 3 4 4 4 3 3 6 9 9 9 10
7 7 5 5 5 4 3 2 2 2 2 1 1 2 2 3 3 2 2 1 1 1 0 1 0 1 0 1 1 0 1 2 2 3 4 4 4 3 3 6 9 9 9
6 6 6 5 4 3 2 2 2 1 1 0 1 1 2 2 3 2 1 1 1 1 0 0 1 0 0 0 0 1 1 1 1 2 3 3 3 4 4 4 4 5 8
6 6 6 5 4 3 2 2 2 1 1 1 1 1 1 2 2 2 1 1 1 1 1 1 1 1 0 0 2 2 3 2 0 1 2 2 3 3 3 3 3 2 3
8 7 6 6 5 4 3 2 2 2 1 1 1 1 1 1 1 2 2 1 1 1 1 1 1 1 0 1 2 1 2 3 2 1 1 2 2 2 3 4 4 4 3
8 8 7 6 5 4 3 2 2 2 2 1 1 0 0 1 1 2 2 2 1 1 1 0 1 2 1 1 1 3 2 2 2 2 1 1 2 2 2 2 4 4 4
9 8 6 6 5 4 4 4 4 3 2 2 1 1 0 1 1 2 2 2 1 1 1 1 1 1 2 0 1 0 2 3 2 1 2 1 1 2 2 2 3 3 3
9 7 7 6 5 4 4 4 4 3 2 1 1 1 1 0 1 1 1 1 1 1 1 1 0 1 1 1 1 0 0 0 1 2 1 2 2 1 1 2 2 2 3
7 7 7 7 5 4 4 4 4 4 3 2 2 1 1 0 0 0 1 1 1 1 1 1 1 1 1 1 1 1 1 1 2 2 2 2 2 2 1 1 1 2 2
Wind_Direction
152 155 137 130 127 124 123 122 120 120 120 120 119 117 118 120 124 128 129 132 134 133 131 129 128 126 125 126 127 129 131 132 133 133 132 131 131 134 138 136 130 128 131
153 152 137 131 128 126 125 124 125 127 126 126 123 123 123 124 125 129 131 133 135 134 133 132 130 128 127 127 130 132 132 133 134 133 131 130 133 138 142 139 137 136 137
143 146 139 133 130 129 129 126 127 129 131 130 128 127 128 129 128 129 133 136 137 135 134 133 131 129 128 129 132 134 136 137 133 130 127 127 138 142 145 144 143 139 139
142 144 140 137 135 134 131 128 126 129 133 132 131 131 132 133 132 130 131 134 136 135 134 133 133 131 131 133 136 137 139 139 136 139 139 151 158 147 144 147 145 143 141
137 140 145 141 138 137 135 132 127 128 132 134 134 135 135 136 137 135 135 135 135 135 135 134 137 139 143 148 150 149 146 148 146 143 139 152 155 154 149 147 147 147 146
138 144 150 143 141 141 139 138 133 130 132 135 136 138 139 140 139 139 139 139 139 140 139 139 142 148 157 167 168 164 157 157 154 146 147 159 161 160 156 154 152 152 153
146 150 152 146 144 143 143 143 140 136 135 135 137 140 141 143 144 145 144 144 145 145 146 147 150 155 163 164 166 166 163 171 157 148 153 160 168 163 161 160 158 157 155
148 151 151 150 146 144 144 147 146 145 143 142 143 145 145 144 144 147 149 151 153 156 157 159 161 162 168 169 170 172 177 185 143 149 151 166 171 167 165 163 163 161 161
140 145 152 153 152 151 150 151 152 151 150 151 152 153 154 154 154 157 161 162 164 166 168 171 174 180 187 190 189 198 204 180 152 159 166 169 174 173 170 167 165 163 161
138 144 149 150 150 153 156 160 161 160 157 156 154 154 157 162 165 170 172 175 178 180 184 188 193 197 202 209 217 224 217 185 168 173 171 178 179 179 176 174 171 167 165
146 154 152 154 156 153 163 167 165 164 163 162 161 163 161 164 172 181 187 188 190 191 195 202 209 214 215 229 237 240 237 192 171 179 180 184 183 184 182 178 176 174 173
159 166 166 164 164 164 167 157 167 167 161 159 160 162 157 165 191 195 201 201 203 203 208 216 224 231 235 245 255 252 218 198 186 185 188 185 184 183 183 182 180 182 183
162 164 168 168 167 166 159 159 163 155 153 161 166 163 160 162 184 192 187 208 212 211 218 225 234 234 234 237 245 230 214 198 187 188 187 184 187 187 189 189 187 189 189
149 154 157 159 154 157 155 161 160 157 162 168 176 176 165 162 167 179 183 192 193 203 209 218 225 236 246 250 237 226 222 198 183 180 185 188 189 191 193 192 192 192 191
142 146 147 143 141 143 140 157 156 163 167 175 173 176 164 161 178 182 182 186 201 206 211 217 227 233 240 242 234 209 201 193 182 178 184 189 190 193 196 195 195 195 193
138 140 138 135 134 134 136 144 153 159 159 162 171 178 172 168 175 175 181 191 209 211 211 211 224 226 234 216 227 207 192 179 181 181 179 187 191 195 199 196 195 194 194
143 136 140 137 134 131 136 149 147 152 149 156 176 183 175 168 171 170 176 195 219 223 212 214 229 215 215 214 216 205 187 181 182 181 178 180 191 197 199 201 197 195 197
142 137 144 139 134 135 130 130 138 144 145 165 176 175 180 172 163 159 161 188 206 195 170 187 193 170 295 258 236 226 182 178 183 186 182 185 188 194 200 200 200 198 200
149 145 145 139 143 147 139 132 128 128 134 164 165 171 185 177 163 152 164 192 172 136 137 215 122 149 229 272 238 201 197 187 188 189 188 194 191 189 196 196 198 201 204
151 144 145 143 145 143 132 109 90 92 112 133 154 171 171 170 163 154 163 183 141 116 58 60 133 116 179 250 29 31 352 221 182 182 188 187 189 197 198 199 196 205 206
154 150 154 150 152 142 136 138 134 152 169 154 167 158 158 158 156 153 158 156 142 151 183 147 137 76 349 52 60 17 357 352 231 195 183 169 183 196 192 195 188 193 212
166 164 162 164 163 165 168 165 161 148 152 149 134 122 142 141 149 148 142 157 173 145 94 67 97 89 321 95 118 87 4 349 341 317 176 173 180 190 201 198 188 191 195
172 171 171 173 169 170 160 132 111 78 55 49 46 66 204 153 139 125 138 142 150 137 155 174 135 141 186 295 139 138 146 228 307 330 290 182 174 185 202 196 196 194 193
179 172 167 163 159 164 152 142 140 143 152 189 183 186 210 133 129 140 135 142 144 135 158 211 158 155 139 224 290 216 171 164 156 306 325 321 230 202 197 196 184 188 186
175 170 165 156 154 155 151 153 151 149 161 158 139 134 155 144 160 153 140 140 149 163 188 197 115 134 148 165 185 224 263 95 143 159 265 307 320 269 218 203 184 187 193
166 166 162 154 160 158 155 159 159 156 151 139 148 155 170 204 244 212 151 153 166 180 196 200 200 178 189 178 178 159 160 168 200 177 210 246 267 280 270 221 188 195 197